Hourly Data Report for October 10, 2014

All times are specified in Local Standard Time (LST). Add 1 hour to adjust for Daylight Saving Time where and when it is observed.

PENTICTON A
BRITISH COLUMBIA

49°27'45.000" N
119°36'08.000" W
344.40 m
1126146
71889
YYF

Download Data

Hourly Data (October 2014)
Hourly Data Report for October 10, 2014
Temp Definition
°C
Dew Point Temp Definition
°C
Rel Hum Definition
%
Wind Dir Definition
10's deg

Wind Spd Definition
km/h
Visibility Definition
km
Stn Press Definition
kPa
Hmdx Definition


Wind Chill Definition


Weather Definition


TIME
00:00 Legend Double Dagger 5.8 4.5 91 36 1 24.1 97.68     LegendNANA
01:00 Legend Double Dagger 5.5 4.0 90 1 4 24.1 97.69     Mainly Clear
02:00 Legend Double Dagger 8.0 6.3 89 6 4 24.1 97.68     LegendNANA
03:00 Legend Double Dagger 5.1 4.1 93 3 5 24.1 97.66     LegendNANA
04:00 Legend Double Dagger 4.8 3.6 92 3 4 24.1 97.66     Mainly Clear
05:00 Legend Double Dagger 5.1 4.1 93 36 1 24.1 97.67     LegendNANA
06:00 Legend Double Dagger 3.8 2.8 93 36 1 24.1 97.66     LegendNANA
07:00 Legend Double Dagger 4.3 3.6 95 2 3 24.1 97.66     Clear
08:00 Legend Double Dagger 10.0 7.4 84 36 2 24.1 97.63     LegendNANA
09:00 Legend Double Dagger 12.9 8.2 73 13 5 24.1 97.63     LegendNANA
10:00 Legend Double Dagger 14.5 7.4 62 14 5 24.1 97.57     Mainly Clear
11:00 Legend Double Dagger 16.1 7.4 56 26 5 24.1 97.46     LegendNANA
12:00 Legend Double Dagger 19.9 7.4 44 17 26 24.1 97.31     LegendNANA
13:00 Legend Double Dagger 20.7 7.1 41 17 26 24.1 97.20     Mostly Cloudy
14:00 Legend Double Dagger 21.7 6.9 38 17 28 24.1 97.12     LegendNANA
15:00 Legend Double Dagger 21.6 7.6 40 18 31 24.1 97.13     LegendNANA
16:00 Legend Double Dagger 22.3 7.1 37 17 21 24.1 97.10     Mostly Cloudy
17:00 Legend Double Dagger 21.2 6.9 39 17 18 24.1 97.03     LegendNANA
18:00 Legend Double Dagger 18.2 9.9 58 21 9 24.1 97.02     LegendNANA
19:00 Legend Double Dagger 17.5 8.2 54 36 2 24.1 96.98     Mostly Cloudy
20:00 Legend Double Dagger 17.6 8.0 53   0 24.1 97.00     LegendNANA
21:00 Legend Double Dagger 16.4 8.2 58 8 7 24.1 97.04     LegendNANA
22:00 Legend Double Dagger 16.4 8.2 58 6 7 24.1 97.08     Mostly Cloudy
23:00 Legend Double Dagger 17.0 8.3 56 18 5 24.1 97.09     LegendNANA

Notes on Data Quality.

Legend

  • E = Estimated
  • M = Missing
  • NA = Not Available
  • ‡ = Partner data that is not subject to review by the National Climate Archives
Date modified: